Weather History for KMKE - August, 2014

Change the Weather History Date:

Saturday, August 9, 2014

  Actual Average Record
Temperature  
Mean Temperature 70 °F 72 °F  
Max Temperature 75 °F 79 °F 97 °F (1934)
Min Temperature 65 °F 64 °F 49 °F (1964)
Degree Days  
Heating Degree Days 0 0  
Month to date heating degree days 0 0  
Since 1 June heating degree days 95 95  
Since 1 July heating degree days 21 11  
Cooling Degree Days 5 7  
Month to date cooling degree days 38 63  
Year to date cooling degree days 273 435  
Since 1 June cooling degree days 255 405  
Growing Degree Days 20 (Base 50)    
Moisture  
Dew Point 60 °F    
Average Humidity 72    
Maximum Humidity 87    
Minimum Humidity 57    
Precipitation  
Precipitation 0.00 in 0.13 in 1.64 in (1960)
Month to date precipitation 0.88 1.17  
Year to date precipitation 20.48 21.38  
Snow  
Snow 0.00 in 0.00 in 0.00 in ()
Month to date snowfall 0.0 0.0  
Since 1 June snowfall 0.0 0.0  
Since 1 July snowfall 0.0 0.0  
Snow Depth 0.00 in    
Sea Level Pressure  
Sea Level Pressure 30.11 in    
Wind  
Wind Speed 7 mph (ENE)    
Max Wind Speed 14 mph    
Max Gust Speed 18 mph    
Visibility 10 miles    
Events      
T = Trace of Precipitation, MM = Missing Value Source: NWS Daily Summary

Daily Weather History Graph

Daily Weather History Graph

Search for Another Location

Airport or City:

Trip Planner

Search our weather history database for the weather conditions in past years. The results will help you decide how hot, cold, wet, or windy it might be!

Date:

Astronomy

Aug. 09, 2014 Rise Set
Actual Time 5:51 AM CDT 8:02 PM CDT
Civil Twilight 5:19 AM CDT 8:33 PM CDT
Nautical Twilight 4:41 AM CDT 9:11 PM CDT
Astronomical Twilight 3:58 AM CDT 9:54 PM CDT
Moon 7:02 PM CDT (8/9) 4:31 AM CDT (8/9)
Length of Visible Light 15h 13m
Length of Day
14h 11m
Waxing Gibbous, 98% of the Moon is Illuminated
Aug 9
Waxing Gibbous
Aug 10
Full
Aug 17
Last Quarter
Aug 25
New
Sep 2
First Quarter

Hourly Weather History & Observations

Time (CDT) Temp. Dew Point Humidity Pressure Visibility Wind Dir Wind Speed Gust Speed Precip Events Conditions
12:52 AM 66.9 °F 59.0 °F 76% 30.10 in 10.0 mi East 5.8 mph - N/A   Scattered Clouds
1:52 AM 68.0 °F 59.0 °F 73% 30.09 in 10.0 mi ESE 9.2 mph - N/A   Scattered Clouds
2:52 AM 66.9 °F 59.0 °F 76% 30.09 in 10.0 mi East 6.9 mph - N/A   Scattered Clouds
3:52 AM 66.0 °F 60.1 °F 81% 30.10 in 10.0 mi ENE 6.9 mph - N/A   Scattered Clouds
4:52 AM 64.9 °F 60.1 °F 84% 30.11 in 10.0 mi ENE 3.5 mph - N/A   Mostly Cloudy
5:52 AM 64.9 °F 59.0 °F 81% 30.12 in 10.0 mi East 3.5 mph - N/A   Mostly Cloudy
6:52 AM 66.0 °F 61.0 °F 84% 30.13 in 10.0 mi SE 4.6 mph - N/A   Scattered Clouds
7:52 AM 68.0 °F 61.0 °F 78% 30.13 in 10.0 mi East 5.8 mph - N/A   Partly Cloudy
8:52 AM 70.0 °F 62.1 °F 76% 30.13 in 10.0 mi East 6.9 mph - N/A   Partly Cloudy
9:52 AM 72.0 °F 61.0 °F 68% 30.14 in 10.0 mi East 8.1 mph - N/A   Partly Cloudy
10:52 AM 72.0 °F 62.1 °F 71% 30.15 in 10.0 mi East 8.1 mph - N/A   Partly Cloudy
11:52 AM 73.0 °F 60.1 °F 64% 30.15 in 10.0 mi ESE 6.9 mph - N/A   Partly Cloudy
12:52 PM 73.9 °F 60.1 °F 62% 30.13 in 10.0 mi East 9.2 mph - N/A   Partly Cloudy
1:52 PM 73.9 °F 57.9 °F 57% 30.12 in 10.0 mi East 10.4 mph - N/A   Partly Cloudy
2:52 PM 73.0 °F 57.9 °F 59% 30.12 in 10.0 mi ENE 9.2 mph - N/A   Scattered Clouds
3:52 PM 73.9 °F 57.9 °F 57% 30.12 in 10.0 mi ENE 6.9 mph - N/A   Mostly Cloudy
4:52 PM 73.0 °F 57.9 °F 59% 30.11 in 10.0 mi NE 9.2 mph - N/A   Mostly Cloudy
5:52 PM 71.1 °F 59.0 °F 66% 30.10 in 10.0 mi NNE 9.2 mph - N/A   Mostly Cloudy
6:52 PM 71.1 °F 57.9 °F 63% 30.09 in 10.0 mi NNE 6.9 mph - N/A   Mostly Cloudy
7:52 PM 68.0 °F 60.1 °F 76% 30.09 in 10.0 mi NNE 11.5 mph - N/A   Scattered Clouds
8:52 PM 66.9 °F 60.1 °F 79% 30.10 in 10.0 mi NE 9.2 mph - N/A   Scattered Clouds
9:52 PM 66.2 °F 60.8 °F 83% 30.11 in 10.0 mi NNE 4.6 mph - N/A   Scattered Clouds
11:52 PM 66.9 °F 60.1 °F 79% 30.09 in 10.0 mi NNE 6.9 mph - N/A   Scattered Clouds